Zurück zum Katalog

ARIANE 44LP DEB

LostGTO
NORAD 33543·DEBRIS·🇫🇷 France

Gestartet Dec 11, 1988 von Guiana Space Centre

Loading…

TLE

VeraltetSource: Space-Track

Epoche: Oct 3, 2025, 01:06 UTC

1 33543U 88109S   25276.04627424  .00000438  00000-0  79037-2 0  9998
2 33543   6.6443 148.8006 7152253 229.6327 352.9779  2.27102269189951

Verfolge ARIANE 44LP DEB in Echtzeit mit AllMySat

Download on the App Store